Location: Artiguedieu
(43.5000°N, 0.5454°E)
Time: 00:05:28
(UTC+00:00)

Transit 2A Rocket - Pass Details

Date: 02 August 2021
Orbit: 586 x 916 km, 66.7° (Epoch: 19 September)

Event Time Altitude Azimuth Distance (km) Brightness Sun altitude
Rises 00:12:00 0° 313° (NW) 3,340 8.9 -28.7°
Reaches altitude 10° 00:15:06 10° 295° (WNW) 2,461 7.8 -28.7°
Enters shadow 00:17:27 17° 272° (W) 2,050 7.1 -28.7°
Maximum altitude 00:18:52 18° 254° (WSW) 1,985 - -28.7°
Drops below altitude 10° 00:22:47 10° 212° (SSW) 2,557 - -28.6°
Sets 00:26:06 0° 195° (SSW) 3,520 - -28.5°
